CW3742 Weather Reports


time (UTC)temp
C
wind
direction
speed
KPH
gust
KPH
rain 1hr
cm
rain 24hr
cm
rain mn
cm
humidity
%
barometer
mb
20260904123018 25 225 8.0 16.1 0.00 0.00 0.00 82 994.4
20260904120018 25 203 9.7 14.5 0.00 0.00 0.00 83 994.1
20260904113018 24 203 8.0 12.9 0.00 0.00 0.00 84 993.9
20260904110018 24 180 8.0 12.9 0.00 0.00 0.00 84 993.7
20260904103018 24 180 8.0 12.9 0.00 0.00 0.00 84 993.8
20260904100036 25 158 8.0 14.5 0.00 0.00 0.00 84 993.7
20260904093016 25 158 8.0 14.5 0.00 0.00 0.00 82 993.3
20260904090016 25 158 8.0 12.9 0.00 0.00 0.00 82 993.1
20260904083016 25 158 8.0 11.3 0.00 0.00 0.00 82 993.1
20260904080036 26 158 6.4 12.9 0.00 0.00 0.00 80 993.1
20260904073018 25 135 6.4 9.7 0.00 0.00 0.00 83 993.2
20260904070016 26 158 6.4 11.3 0.00 0.00 0.00 82 993.4
20260904063016 26 158 6.4 11.3 0.00 0.00 0.00 82 993.6
20260904060056 26 135 6.4 11.3 0.00 0.00 0.00 82 993.7
20260904053056 26 135 6.4 9.7 0.00 0.00 0.00 81 993.9
20260904050016 26 135 6.4 9.7 0.00 0.00 0.00 81 993.7
20260904043018 26 135 6.4 8.0 0.00 0.00 0.00 82 993.5
20260904040018 27 158 6.4 11.3 0.00 0.00 0.00 81 993.5
20260904033018 27 158 6.4 11.3 0.00 0.00 0.00 80 993.4
20260904030018 28 158 4.8 11.3 0.00 0.00 0.00 79 993.4
20260904023018 28 180 6.4 11.3 0.00 0.00 0.00 78 992.9
20260904020038 29 180 6.4 14.5 0.00 0.00 0.00 77 992.7
20260904013018 29 180 6.4 11.3 0.00 0.00 0.00 76 992.6
20260904010018 30 158 4.8 9.7 0.00 0.00 0.00 74 992.4
20260904003016 31 158 6.4 11.3 0.00 0.00 0.00 72 992.3
20260904000016 31 158 6.4 14.5 0.00 0.00 0.00 70 992.3
20260903233016 32 158 8.0 14.5 0.00 0.00 0.00 68 992.4
20260903230017 33 158 6.4 12.9 0.00 0.00 0.00 65 992.7
20260903223016 34 158 8.0 16.1 0.00 0.00 0.00 62 992.8
20260903220036 35 180 8.0 17.7 0.00 0.00 0.00 61 993.1
20260903213016 35 225 9.7 14.5 0.00 0.00 0.00 59 993.4
20260903210016 35 203 8.0 14.5 0.00 0.00 0.00 57 993.4
20260903203016 35 225 4.8 14.5 0.00 0.00 0.00 58 993.6
20260903200016 35 203 4.8 11.3 0.00 0.00 0.00 59 993.7
20260903193017 34 158 8.0 17.7 0.00 0.00 0.00 60 994.0
20260903190016 34 203 8.0 16.1 0.00 0.00 0.00 59 994.0
20260903183016 34 225 6.4 14.5 0.00 0.00 0.00 61 994.2
20260903180016 33 225 4.8 14.5 0.00 0.00 0.00 62 994.4
20260903173016 33 225 4.8 12.9 0.00 0.00 0.00 64 994.5
20260903170018 32 225 8.0 17.7 0.00 0.00 0.00 64 994.8
20260903163016 31 225 6.4 16.1 0.00 0.00 0.00 67 995.0
20260903160016 30 225 9.7 19.3 0.00 0.00 0.00 68 995.1
20260903153016 30 225 11.3 20.9 0.00 0.00 0.00 70 995.0
20260903150016 29 225 12.9 22.5 0.00 0.00 0.00 71 994.9
20260903143016 28 225 11.3 19.3 0.00 0.00 0.00 71 994.6
20260903140016 28 225 11.3 22.5 0.00 0.00 0.00 72 994.6
20260903133017 27 203 11.3 19.3 0.00 0.00 0.00 75 994.6
20260903130056 26 203 8.0 16.1 0.00 0.00 0.00 80 994.6